CST,Max TemperatureF,Mean TemperatureF,Min TemperatureF,Max Dew PointF,MeanDew PointF,Min DewpointF,Max Humidity, Mean Humidity, Min Humidity, Max Sea Level PressureIn, Mean Sea Level PressureIn, Min Sea Level PressureIn, Max VisibilityMiles, Mean VisibilityMiles, Min VisibilityMiles, Max Wind SpeedMPH, Mean Wind SpeedMPH, Max Gust SpeedMPH,PrecipitationIn, CloudCover, Events, WindDirDegrees
2011-11-1,79,66,54,57,50,47,83,60,37,30.14,30.07,29.99,10,10,8,16,6,22,0.00,0,,168
2011-11-2,82,68,53,60,54,31,88,64,36,30.30,30.02,29.94,10,10,6,22,10,39,0.00,4,,183
2011-11-3,62,52,39,30,22,7,60,39,13,30.43,30.35,30.30,10,10,10,20,14,30,0.00,1,,347
2011-11-4,64,48,32,21,18,13,59,34,14,30.29,30.20,30.09,10,10,10,6,2,,0.00,0,,101
2011-11-5,75,60,46,61,41,18,83,50,29,30.08,29.96,29.83,10,10,10,17,5,33,0.00,3,,161
2011-11-6,78,72,66,66,64,60,94,83,66,30.05,29.97,29.89,10,9,5,12,7,22,0.00,8,Rain,160
2011-11-7,75,72,69,67,65,63,88,81,69,30.04,29.96,29.88,10,9,4,15,9,28,0.00,7,Rain,154
2011-11-8,75,64,54,64,50,28,88,59,21,30.14,29.95,29.82,10,8,1,20,11,28,0.14,5,Rain,271
2011-11-9,60,52,44,41,32,26,71,48,28,30.43,30.32,30.16,10,10,10,17,12,31,0.00,0,,356
2011-11-10,64,52,37,33,27,19,68,44,18,30.52,30.41,30.33,10,10,10,10,6,18,0.00,0,,357
2011-11-11,68,50,32,28,24,19,79,41,16,30.31,30.18,30.05,10,10,10,15,4,22,0.00,0,,189
2011-11-12,75,63,51,58,50,33,80,59,43,30.03,29.96,29.90,10,10,10,20,10,32,0.00,0,,183
2011-11-13,84,73,62,63,58,54,90,67,35,29.95,29.87,29.78,10,10,7,16,9,24,0.00,1,,185
2011-11-14,79,74,69,65,63,60,87,74,54,29.94,29.84,29.74,9,7,3,17,10,26,0.00,7,,185
2011-11-15,75,68,59,66,63,56,94,86,62,29.85,29.77,29.67,10,7,3,9,3,,0.00,4,Rain,211
2011-11-16,75,63,50,55,49,36,88,68,33,30.29,29.95,29.76,10,10,7,15,6,26,0.00,2,,320
2011-11-17,61,51,41,34,27,21,54,42,27,30.46,30.34,30.25,10,10,10,15,9,25,0.00,1,,54
2011-11-18,64,54,45,58,43,31,78,63,52,30.23,30.10,29.95,10,10,10,14,5,21,0.00,5,,166
2011-11-19,77,70,64,68,62,59,88,76,60,29.99,29.92,29.84,10,9,7,17,10,26,0.00,6,,180
2011-11-20,81,72,62,68,64,53,84,71,54,30.08,30.00,29.94,10,10,5,15,10,26,0.00,8,Rain,163
2011-11-21,75,65,55,70,59,51,94,88,78,30.12,30.01,29.84,10,6,1,14,7,22,0.08,8,Rain,74
2011-11-22,69,61,52,66,51,46,94,80,58,30.25,30.07,29.92,10,9,2,16,10,26,0.34,6,Rain-Thunderstorm,337
2011-11-23,69,57,45,50,47,42,90,75,49,30.33,30.27,30.23,10,9,6,7,1,,0.00,0,,308
2011-11-24,70,58,45,51,47,42,90,70,47,30.30,30.22,30.14,10,8,3,9,3,16,0.00,0,,151
2011-11-25,73,64,55,58,55,51,94,78,49,30.15,30.02,29.83,10,8,4,17,8,25,0.00,7,,167
2011-11-26,64,56,48,59,50,32,96,77,46,30.29,30.00,29.87,10,6,0,24,7,37,0.47,7,Fog-Rain-Thunderstorm,262
2011-11-27,54,46,36,30,13,3,50,29,14,30.40,30.32,30.27,10,10,10,23,14,34,0.00,1,,326
2011-11-28,63,46,30,31,23,15,69,44,19,30.25,30.14,30.04,10,10,10,6,2,,0.00,0,,356
2011-11-29,64,52,41,33,27,22,56,40,22,30.27,30.20,30.08,10,10,10,13,6,,0.00,0,,8
2011-11-30,61,49,37,34,31,27,73,51,31,30.29,30.19,30.09,10,10,7,7,4,,0.00,0,,90